Time,TemperatureF,DewpointF,PressureIn,WindDirection,WindDirectionDegrees,WindSpeedMPH,WindSpeedGustMPH,Humidity,HourlyPrecipIn,Conditions,Clouds,dailyrainin,SoftwareType,DateUTC
2013-05-05 00:05:00,43.5,37.4,30.29,WNW,292,0.0,-999.0,79,-99.99,,,0.00,Acu-Link.com,2013-05-05 04:05:00,
2013-05-05 00:20:00,43.0,37.3,30.28,WNW,292,0.0,-999.0,80,-99.99,,,0.00,Acu-Link.com,2013-05-05 04:20:00,
2013-05-05 00:35:00,42.3,37.2,30.28,WNW,292,0.0,-999.0,82,-99.99,,,0.00,Acu-Link.com,2013-05-05 04:35:00,
2013-05-05 00:51:00,41.9,37.1,30.27,WNW,292,0.0,-999.0,83,-99.99,,,0.00,Acu-Link.com,2013-05-05 04:51:00,
2013-05-05 01:06:00,41.2,36.7,30.27,WNW,292,0.0,-999.0,84,-99.99,,,0.00,Acu-Link.com,2013-05-05 05:06:00,
2013-05-05 01:21:00,40.8,36.6,30.27,WNW,292,0.0,-999.0,85,-99.99,,,0.00,Acu-Link.com,2013-05-05 05:21:00,
2013-05-05 01:36:00,40.3,36.5,30.27,WNW,292,0.0,-999.0,86,-99.99,,,0.00,Acu-Link.com,2013-05-05 05:36:00,
2013-05-05 01:51:00,39.6,36.1,30.26,WNW,292,0.0,-999.0,87,-99.99,,,0.00,Acu-Link.com,2013-05-05 05:51:00,
2013-05-05 02:07:00,39.2,36.0,30.26,WNW,292,0.0,-999.0,88,-99.99,,,0.00,Acu-Link.com,2013-05-05 06:07:00,
2013-05-05 02:22:00,38.8,35.6,30.26,WNW,292,0.0,-999.0,88,-99.99,,,0.00,Acu-Link.com,2013-05-05 06:22:00,
2013-05-05 02:37:00,38.3,35.3,30.25,WNW,292,0.0,-999.0,89,-99.99,,,0.00,Acu-Link.com,2013-05-05 06:37:00,
2013-05-05 02:52:00,37.9,35.0,30.26,WNW,292,0.0,-999.0,89,-99.99,,,0.00,Acu-Link.com,2013-05-05 06:52:00,
2013-05-05 03:07:00,37.4,34.7,30.26,WNW,292,0.0,-999.0,90,-99.99,,,0.00,Acu-Link.com,2013-05-05 07:07:00,
2013-05-05 03:23:00,36.7,34.6,30.26,WNW,292,0.0,-999.0,92,-99.99,,,0.00,Acu-Link.com,2013-05-05 07:23:00,
2013-05-05 03:38:00,36.7,34.3,30.26,WNW,292,0.0,-999.0,91,-99.99,,,0.00,Acu-Link.com,2013-05-05 07:38:00,
2013-05-05 03:53:00,36.3,34.2,30.26,WNW,292,0.0,-999.0,92,-99.99,,,0.00,Acu-Link.com,2013-05-05 07:53:00,
2013-05-05 04:09:00,36.1,34.0,30.26,WNW,292,0.0,-999.0,92,-99.99,,,0.00,Acu-Link.com,2013-05-05 08:09:00,
2013-05-05 04:24:00,36.0,34.2,30.25,WNW,292,0.0,-999.0,93,-99.99,,,0.00,Acu-Link.com,2013-05-05 08:24:00,
2013-05-05 04:40:00,35.6,33.8,30.26,WNW,292,0.0,-999.0,93,-99.99,,,0.00,Acu-Link.com,2013-05-05 08:40:00,
2013-05-05 04:55:00,35.2,33.4,30.26,WNW,292,0.0,-999.0,93,-99.99,,,0.00,Acu-Link.com,2013-05-05 08:55:00,
2013-05-05 05:10:00,34.9,33.4,30.25,WNW,292,0.0,-999.0,94,-99.99,,,0.00,Acu-Link.com,2013-05-05 09:10:00,
2013-05-05 05:25:00,34.5,32.7,30.25,WNW,292,0.0,-999.0,93,-99.99,,,0.00,Acu-Link.com,2013-05-05 09:25:00,
2013-05-05 05:40:00,34.3,32.8,30.25,WNW,292,0.0,-999.0,94,-99.99,,,0.00,Acu-Link.com,2013-05-05 09:40:00,
2013-05-05 05:55:00,34.2,32.7,30.25,WNW,292,0.0,-999.0,94,-99.99,,,0.00,Acu-Link.com,2013-05-05 09:55:00,
2013-05-05 06:11:00,34.2,32.9,30.25,WNW,292,0.0,-999.0,95,-99.99,,,0.00,Acu-Link.com,2013-05-05 10:11:00,
2013-05-05 06:26:00,34.5,33.5,30.26,WNW,292,0.0,-999.0,96,-99.99,,,0.00,Acu-Link.com,2013-05-05 10:26:00,
2013-05-05 06:41:00,35.8,34.8,30.26,WNW,292,0.0,-999.0,96,-99.99,,,0.00,Acu-Link.com,2013-05-05 10:41:00,
2013-05-05 06:56:00,38.3,36.7,30.25,West,270,0.0,-999.0,94,-99.99,,,0.00,Acu-Link.com,2013-05-05 10:56:00,
2013-05-05 07:11:00,40.3,37.3,30.25,West,270,0.0,-999.0,89,-99.99,,,0.00,Acu-Link.com,2013-05-05 11:11:00,
2013-05-05 07:27:00,42.1,38.2,30.25,SSW,202,1.1,-999.0,86,-99.99,,,0.00,Acu-Link.com,2013-05-05 11:27:00,
2013-05-05 07:42:00,43.7,38.6,30.26,South,180,0.0,-999.0,82,-99.99,,,0.00,Acu-Link.com,2013-05-05 11:42:00,
2013-05-05 07:57:00,45.1,39.6,30.25,SE,135,0.0,-999.0,81,-99.99,,,0.00,Acu-Link.com,2013-05-05 11:57:00,
2013-05-05 08:13:00,46.8,40.3,30.24,South,180,2.2,-999.0,78,-99.99,,,0.00,Acu-Link.com,2013-05-05 12:13:00,
2013-05-05 08:28:00,48.2,41.0,30.24,SE,135,0.0,-999.0,76,-99.99,,,0.00,Acu-Link.com,2013-05-05 12:28:00,
2013-05-05 08:43:00,49.8,41.1,30.25,East,90,0.0,-999.0,72,-99.99,,,0.00,Acu-Link.com,2013-05-05 12:43:00,
2013-05-05 08:58:00,51.6,42.1,30.24,WNW,292,0.0,-999.0,70,-99.99,,,0.00,Acu-Link.com,2013-05-05 12:58:00,
2013-05-05 09:13:00,54.0,42.5,30.24,WNW,292,0.0,-999.0,65,-99.99,,,0.00,Acu-Link.com,2013-05-05 13:13:00,
2013-05-05 09:29:00,56.3,41.3,30.24,NE,45,1.1,-999.0,57,-99.99,,,0.00,Acu-Link.com,2013-05-05 13:29:00,
2013-05-05 09:44:00,57.4,42.7,30.23,ENE,67,0.0,-999.0,58,-99.99,,,0.00,Acu-Link.com,2013-05-05 13:44:00,
2013-05-05 09:59:00,59.7,43.5,30.24,SSW,202,1.1,-999.0,55,-99.99,,,0.00,Acu-Link.com,2013-05-05 13:59:00,
2013-05-05 10:14:00,61.2,43.4,30.23,West,270,1.1,-999.0,52,-99.99,,,0.00,Acu-Link.com,2013-05-05 14:14:00,
2013-05-05 10:30:00,62.2,43.8,30.22,SW,225,2.7,-999.0,51,-99.99,,,0.00,Acu-Link.com,2013-05-05 14:30:00,
2013-05-05 10:45:00,63.0,42.5,30.22,NNW,337,1.1,-999.0,47,-99.99,,,0.00,Acu-Link.com,2013-05-05 14:45:00,
2013-05-05 11:00:00,64.6,42.8,30.22,ENE,67,0.0,-999.0,45,-99.99,,,0.00,Acu-Link.com,2013-05-05 15:00:00,
2013-05-05 11:15:00,66.2,42.4,30.22,NNE,22,1.1,-999.0,42,-99.99,,,0.00,Acu-Link.com,2013-05-05 15:15:00,
2013-05-05 11:31:00,67.5,42.3,30.21,SSW,202,1.7,-999.0,40,-99.99,,,0.00,Acu-Link.com,2013-05-05 15:31:00,
2013-05-05 11:46:00,67.6,41.1,30.20,WSW,247,1.1,-999.0,38,-99.99,,,0.00,Acu-Link.com,2013-05-05 15:46:00,
2013-05-05 12:01:00,69.8,40.2,30.20,North,0,2.2,-999.0,34,-99.99,,,0.00,Acu-Link.com,2013-05-05 16:01:00,
2013-05-05 12:16:00,70.5,41.5,30.20,SE,135,0.0,-999.0,35,-99.99,,,0.00,Acu-Link.com,2013-05-05 16:16:00,
2013-05-05 12:31:00,70.3,40.6,30.19,South,180,1.7,-999.0,34,-99.99,,,0.00,Acu-Link.com,2013-05-05 16:31:00,
2013-05-05 12:47:00,71.6,41.7,30.18,NNE,22,1.1,-999.0,34,-99.99,,,0.00,Acu-Link.com,2013-05-05 16:47:00,
2013-05-05 13:02:00,72.7,42.7,30.18,NE,45,1.1,-999.0,34,-99.99,,,0.00,Acu-Link.com,2013-05-05 17:02:00,
2013-05-05 13:17:00,72.5,42.5,30.17,NNE,22,2.2,-999.0,34,-99.99,,,0.00,Acu-Link.com,2013-05-05 17:17:00,
2013-05-05 13:33:00,72.9,41.3,30.17,South,180,2.7,-999.0,32,-99.99,,,0.00,Acu-Link.com,2013-05-05 17:33:00,
2013-05-05 13:48:00,73.8,41.3,30.17,West,270,1.7,-999.0,31,-99.99,,,0.00,Acu-Link.com,2013-05-05 17:48:00,
2013-05-05 14:03:00,73.2,40.7,30.16,NNE,22,2.7,-999.0,31,-99.99,,,0.00,Acu-Link.com,2013-05-05 18:03:00,
2013-05-05 14:18:00,74.3,41.7,30.16,North,0,1.7,-999.0,31,-99.99,,,0.00,Acu-Link.com,2013-05-05 18:18:00,
2013-05-05 14:34:00,76.3,40.8,30.15,SW,225,2.2,-999.0,28,-99.99,,,0.00,Acu-Link.com,2013-05-05 18:34:00,
2013-05-05 14:49:00,75.7,40.3,30.15,East,90,0.0,-999.0,28,-99.99,,,0.00,Acu-Link.com,2013-05-05 18:49:00,
2013-05-05 15:04:00,75.6,40.2,30.14,ENE,67,0.0,-999.0,28,-99.99,,,0.00,Acu-Link.com,2013-05-05 19:04:00,
2013-05-05 15:19:00,74.8,39.5,30.14,SW,225,0.0,-999.0,28,-99.99,,,0.00,Acu-Link.com,2013-05-05 19:19:00,
2013-05-05 15:34:00,74.3,40.8,30.14,ESE,112,1.7,-999.0,30,-99.99,,,0.00,Acu-Link.com,2013-05-05 19:34:00,
2013-05-05 15:50:00,73.6,39.4,30.13,NNE,22,3.2,-999.0,29,-99.99,,,0.00,Acu-Link.com,2013-05-05 19:50:00,
2013-05-05 16:05:00,73.6,41.1,30.13,SW,225,1.1,-999.0,31,-99.99,,,0.00,Acu-Link.com,2013-05-05 20:05:00,
2013-05-05 16:20:00,73.2,39.9,30.12,WNW,292,0.0,-999.0,30,-99.99,,,0.00,Acu-Link.com,2013-05-05 20:20:00,
2013-05-05 16:35:00,72.7,40.3,30.12,ESE,112,0.0,-999.0,31,-99.99,,,0.00,Acu-Link.com,2013-05-05 20:35:00,
2013-05-05 16:51:00,72.5,40.1,30.12,SW,225,2.2,-999.0,31,-99.99,,,0.00,Acu-Link.com,2013-05-05 20:51:00,
2013-05-05 17:06:00,72.7,41.9,30.12,WSW,247,1.1,-999.0,33,-99.99,,,0.00,Acu-Link.com,2013-05-05 21:06:00,
2013-05-05 17:21:00,72.0,41.3,30.12,West,270,0.0,-999.0,33,-99.99,,,0.00,Acu-Link.com,2013-05-05 21:21:00,
2013-05-05 17:36:00,71.2,40.6,30.13,SW,225,1.1,-999.0,33,-99.99,,,0.00,Acu-Link.com,2013-05-05 21:36:00,
2013-05-05 17:51:00,70.5,40.0,30.12,West,270,2.2,-999.0,33,-99.99,,,0.00,Acu-Link.com,2013-05-05 21:51:00,
2013-05-05 18:07:00,69.3,41.9,30.12,SE,135,0.0,-999.0,37,-99.99,,,0.00,Acu-Link.com,2013-05-05 22:07:00,
2013-05-05 18:22:00,68.0,42.8,30.13,East,90,1.1,-999.0,40,-99.99,,,0.00,Acu-Link.com,2013-05-05 22:22:00,
2013-05-05 18:37:00,66.9,43.1,30.13,East,90,3.2,-999.0,42,-99.99,,,0.00,Acu-Link.com,2013-05-05 22:37:00,
2013-05-05 18:52:00,65.3,44.0,30.14,SSW,202,1.1,-999.0,46,-99.99,,,0.00,Acu-Link.com,2013-05-05 22:52:00,
2013-05-05 19:08:00,64.0,45.0,30.13,NNW,337,2.2,-999.0,50,-99.99,,,0.00,Acu-Link.com,2013-05-05 23:08:00,
2013-05-05 19:23:00,62.8,44.9,30.14,East,90,0.0,-999.0,52,-99.99,,,0.00,Acu-Link.com,2013-05-05 23:23:00,
2013-05-05 19:38:00,61.7,44.4,30.14,WSW,247,0.0,-999.0,53,-99.99,,,0.00,Acu-Link.com,2013-05-05 23:38:00,
2013-05-05 19:53:00,60.4,44.2,30.14,NW,315,0.0,-999.0,55,-99.99,,,0.00,Acu-Link.com,2013-05-05 23:53:00,
2013-05-05 20:09:00,59.4,44.2,30.15,WNW,292,0.0,-999.0,57,-99.99,,,0.00,Acu-Link.com,2013-05-06 00:09:00,
2013-05-05 20:24:00,58.3,44.0,30.15,NW,315,0.0,-999.0,59,-99.99,,,0.00,Acu-Link.com,2013-05-06 00:24:00,
2013-05-05 20:39:00,57.2,43.9,30.16,West,270,1.7,-999.0,61,-99.99,,,0.00,Acu-Link.com,2013-05-06 00:39:00,
2013-05-05 20:54:00,56.5,43.6,30.16,WNW,292,0.0,-999.0,62,-99.99,,,0.00,Acu-Link.com,2013-05-06 00:54:00,
2013-05-05 21:09:00,55.6,43.6,30.18,WNW,292,0.0,-999.0,64,-99.99,,,0.00,Acu-Link.com,2013-05-06 01:09:00,
2013-05-05 21:25:00,55.0,43.5,30.18,NW,315,0.0,-999.0,65,-99.99,,,0.00,Acu-Link.com,2013-05-06 01:25:00,
2013-05-05 21:40:00,54.1,43.4,30.17,NW,315,0.0,-999.0,67,-99.99,,,0.00,Acu-Link.com,2013-05-06 01:40:00,
2013-05-05 21:55:00,53.4,42.7,30.18,NW,315,0.0,-999.0,67,-99.99,,,0.00,Acu-Link.com,2013-05-06 01:55:00,
2013-05-05 22:10:00,52.5,42.2,30.18,WNW,292,0.0,-999.0,68,-99.99,,,0.00,Acu-Link.com,2013-05-06 02:10:00,
2013-05-05 22:25:00,51.8,42.3,30.18,NW,315,0.0,-999.0,70,-99.99,,,0.00,Acu-Link.com,2013-05-06 02:25:00,
2013-05-05 22:41:00,51.1,42.0,30.18,NW,315,0.0,-999.0,71,-99.99,,,0.00,Acu-Link.com,2013-05-06 02:41:00,
2013-05-05 22:56:00,50.4,41.7,30.18,NW,315,0.0,-999.0,72,-99.99,,,0.00,Acu-Link.com,2013-05-06 02:56:00,
2013-05-05 23:11:00,49.6,41.7,30.18,NNE,22,0.0,-999.0,74,-99.99,,,0.00,Acu-Link.com,2013-05-06 03:11:00,
2013-05-05 23:26:00,48.4,41.5,30.18,NNE,22,0.0,-999.0,77,-99.99,,,0.00,Acu-Link.com,2013-05-06 03:26:00,
2013-05-05 23:41:00,47.8,40.9,30.18,NNW,337,0.0,-999.0,77,-99.99,,,0.00,Acu-Link.com,2013-05-06 03:41:00,
2013-05-05 23:57:00,46.8,41.0,30.18,NW,315,0.0,-999.0,80,-99.99,,,0.00,Acu-Link.com,2013-05-06 03:57:00,